FW3268 Weather Reports


Display with metric or nautical units.
time (UTC)temp
F
wind
direction
speed
MPH
gust
MPH
rain 1hr
in
rain 24hr
in
rain mn
in
humidity
%
barometer
mb
20260505023002 67 219 9.0 13.0 0.00 0.00 0.00 64 1002.7
20260505021502 67 228 10.0 15.0 0.00 0.00 0.00 63 1002.6
20260505020006 67 230 9.0 13.0 0.00 0.00 0.00 63 1002.7
20260505014502 68 231 8.0 11.0 0.00 0.00 0.00 62 1002.5
20260505013003 68 220 8.0 12.0 0.00 0.00 0.00 60 1002.3
20260505010004 69 215 7.0 10.0 0.00 0.00 0.00 58 1002.1
20260505004501 70 211 9.0 14.0 0.00 0.00 0.00 57 1001.9
20260505003002 71 219 12.0 18.0 0.00 0.00 0.00 54 1001.6
20260505001502 71 238 13.0 18.0 0.00 0.00 0.00 53 1001.6
20260505000004 72 240 14.0 20.0 0.00 0.00 0.00 52 1001.6
20260504234502 73 235 16.0 25.0 0.00 0.00 0.00 50 1001.8
20260504233002 73 245 14.0 19.0 0.00 0.00 0.00 53 1002.1
20260504231501 73 243 15.0 27.0 0.00 0.00 0.00 51 1002.4
20260504230005 73 230 16.0 23.0 0.00 0.00 0.00 58 1002.6
20260504223001 73 197 12.0 18.0 0.00 0.00 0.00 62 1002.7
20260504221501 72 229 13.0 18.0 0.00 0.00 0.00 64 1003.0
20260504220004 72 238 13.0 21.0 0.00 0.00 0.00 63 1003.0
20260504214501 71 261 17.0 24.0 0.00 0.01 0.00 61 1003.1
20260504213002 73 203 19.0 26.0 0.00 0.01 0.00 57 1003.2
20260504211501 72 224 20.0 28.0 0.00 0.01 0.00 57 1003.5
20260504210005 71 250 21.0 31.0 0.00 0.01 0.00 56 1003.7
20260504204506 71 257 18.0 24.0 0.00 0.01 0.00 57 1003.6
20260504203001 72 258 19.0 25.0 0.00 0.01 0.00 55 1003.6
20260504201502 72 257 18.0 27.0 0.00 0.01 0.00 52 1003.8
20260504194501 72 253 17.0 27.0 0.00 0.03 0.00 55 1003.8
20260504193002 72 250 17.0 24.0 0.00 0.03 0.00 56 1004.3
20260504191502 71 244 20.0 28.0 0.00 0.03 0.00 56 1004.3
20260504190004 72 259 18.0 30.0 0.00 0.03 0.00 56 1004.4
20260504184500 72 258 20.0 29.0 0.00 0.07 0.00 56 1004.7
20260504183000 73 247 21.0 31.0 0.00 0.07 0.00 53 1004.6
20260504181503 73 243 21.0 31.0 0.00 0.07 0.00 54 1004.3
20260504180004 74 245 21.0 30.0 0.00 0.07 0.00 53 1004.2
20260504174504 73 265 20.0 28.0 0.00 0.07 0.00 55 1004.4
20260504173002 72 232 19.0 29.0 0.00 0.07 0.00 56 1004.5
20260504081500 51 225 7.0 11.0 0.00 0.07 0.00 75 1007.4
20260504050004 54 220 7.0 11.0 0.00 0.07 0.00 71 1008.9
20260504044502 53 222 7.0 11.0 0.00 0.07 0.00 71 1008.9
20260504043001 53 212 7.0 11.0 0.00 0.07 0.00 71 1009.1
20260504041501 52 186 4.0 7.0 0.00 0.07 0.00 75 1009.2
20260504040006 52 177 5.0 7.0 0.00 0.07 0.00 75 1009.4
20260504034501 52 172 6.0 9.0 0.00 0.07 0.07 75 1009.5
20260504033002 53 184 6.0 9.0 0.00 0.07 0.07 74 1009.6
20260504031501 53 184 6.0 9.0 0.00 0.07 0.07 74 1009.6
20260504030005 53 177 4.0 7.0 0.00 0.07 0.07 75 1009.7
20260504024504 53 195 4.0 6.0 0.00 0.07 0.07 75 1009.8